Date String (YYYY-MM-DD hh:mm:ss) UTC,Instrument flags,absolute air pressure of the measurement (hPa),sample flow rate (lpm),inlet stack bypass flow (lpm),air temperature of the measurement (°C),ambient temperature measured by the external sensor (°C),aerosol sample conditioner tube jacket temperature (°C),OPC LED temperature (°C),internal box temperature (°C),relative humidity of the measurement (%),span deviation,mass concentration of particles derived from Lorenz-Mie calculation of OPC scattering (μg/m³),mass concentration of particles derived from Lorenz-Mie calculation of OPC scattering (μg/m³),mass concentration of particles derived from Lorenz-Mie calculation of OPC scattering (μg/m³)
DateTimeUTC,F1_M11,P_M11,Q1_M11,Q2_M11,T1_M11,T2_M11,T3_M11,T4_M11,T5_M11,U1_M11,ZSPAN_M11,X0_M11,X2_M11,X1_M11
2023-06-02 01:00:00,SystemResetWarning,0825.0,5.00,000.00,029.3,027.6,000.0,037.7,031.0,22.7,0000.0,0004.02,0002.03,0001.33
2023-06-02 01:01:00,SystemResetWarning,0824.9,5.00,000.00,029.4,027.7,000.0,037.7,031.0,22.6,0000.0,0004.11,0002.06,0001.34
2023-06-02 01:02:00,SystemResetWarning,0825.0,5.01,000.00,029.4,027.8,000.0,037.7,031.0,22.6,0000.0,0004.07,0002.06,0001.35
2023-06-02 01:03:00,SystemResetWarning,0825.0,4.99,000.00,029.4,027.9,000.0,037.8,031.1,22.2,0000.0,0004.06,0002.06,0001.34
2023-06-02 01:04:00,SystemResetWarning,0825.1,5.00,000.00,029.4,028.0,000.0,037.8,031.1,22.7,0000.0,0004.14,0002.07,0001.35
2023-06-02 01:05:00,SystemResetWarning,0825.1,5.00,000.00,029.4,028.0,000.0,037.8,031.1,22.5,0000.0,0004.34,0002.12,0001.37
2023-06-02 01:06:00,SystemResetWarning,0825.1,5.00,000.00,029.5,028.1,000.0,037.8,031.2,22.7,0000.0,0004.50,0002.20,0001.41
2023-06-02 01:07:00,SystemResetWarning,0825.1,5.00,000.00,029.5,028.1,000.0,037.8,031.2,23.1,0000.0,0004.66,0002.28,0001.43
2023-06-02 01:08:00,SystemResetWarning,0825.1,5.00,000.00,029.5,028.2,000.0,037.8,031.2,22.6,0000.0,0004.59,0002.32,0001.46
2023-06-02 01:09:00,SystemResetWarning,0825.1,5.01,000.00,029.5,028.2,000.0,037.8,031.2,22.6,0000.0,0004.36,0002.31,0001.46
2023-06-02 01:10:00,SystemResetWarning,0825.1,5.01,000.00,029.6,028.3,000.0,037.8,031.3,23.0,0000.0,0004.47,0002.34,0001.47
2023-06-02 01:11:00,SystemResetWarning,0825.1,5.00,000.00,029.6,028.3,000.0,037.9,031.3,22.8,0000.0,0004.58,0002.35,0001.47
2023-06-02 01:12:00,SystemResetWarning,0825.1,4.99,000.00,029.6,028.3,000.0,037.9,031.3,23.1,0000.0,0004.64,0002.34,0001.47
2023-06-02 01:13:00,SystemResetWarning,0825.1,5.00,000.00,029.7,028.4,000.0,037.9,031.4,22.6,0000.0,0004.60,0002.32,0001.47
2023-06-02 01:14:00,SystemResetWarning,0825.1,5.00,000.00,029.7,028.4,000.0,037.9,031.4,22.6,0000.0,0004.48,0002.30,0001.46
2023-06-02 01:15:00,SystemResetWarning,0825.1,5.01,000.00,029.7,028.4,000.0,038.0,031.4,22.7,0000.0,0004.29,0002.26,0001.45
2023-06-02 01:16:00,SystemResetWarning,0825.1,5.00,000.00,029.7,027.1,000.0,037.9,031.2,22.1,0000.0,0004.04,0002.22,0001.45
2023-06-02 01:17:00,SystemResetWarning,0825.1,5.01,000.00,029.6,025.8,000.0,037.8,031.0,22.6,0000.0,0004.00,0002.19,0001.44
2023-06-02 01:18:00,SystemResetWarning,0825.1,5.01,000.00,029.6,025.6,000.0,037.8,030.9,22.3,0000.0,0003.84,0002.14,0001.43
2023-06-02 01:19:00,SystemResetWarning,0825.1,5.00,000.00,029.5,025.8,000.0,037.8,030.9,22.5,0000.0,0003.66,0002.07,0001.41
2023-06-02 01:20:00,SystemResetWarning,0825.1,4.99,000.00,029.4,026.2,000.0,037.8,030.9,22.3,0000.0,0003.56,0002.03,0001.42
2023-06-02 01:21:00,SystemResetWarning,0825.1,5.00,000.00,029.4,026.5,000.0,037.8,030.9,22.1,0000.0,0003.60,0002.03,0001.42
2023-06-02 01:22:00,SystemResetWarning,0825.1,5.00,000.00,029.4,026.8,000.0,037.8,031.0,22.5,0000.0,0003.64,0002.06,0001.44
2023-06-02 01:23:00,SystemResetWarning,0825.1,5.01,000.00,029.4,027.1,000.0,037.8,031.0,22.5,0000.0,0003.54,0002.07,0001.43
2023-06-02 01:24:00,SystemResetWarning,0825.1,4.98,000.00,029.4,027.3,000.0,037.8,031.0,21.9,0000.0,0003.61,0002.10,0001.43
2023-06-02 01:25:00,SystemResetWarning,0825.2,4.99,000.00,029.4,027.5,000.0,037.8,031.1,22.1,0000.0,0003.67,0002.12,0001.44
2023-06-02 01:26:00,SystemResetWarning,0825.2,5.01,000.00,029.5,027.7,000.0,037.8,031.1,22.3,0000.0,0003.75,0002.17,0001.44
2023-06-02 01:27:00,SystemResetWarning,0825.2,5.01,000.00,029.5,027.8,000.0,037.8,031.1,22.3,0000.0,0003.74,0002.16,0001.45
2023-06-02 01:28:00,SystemResetWarning,0825.2,5.00,000.00,029.5,027.9,000.0,037.8,031.2,22.5,0000.0,0004.33,0002.20,0001.46
2023-06-02 01:29:00,SystemResetWarning,0825.2,4.98,000.00,029.5,028.0,000.0,037.8,031.2,22.3,0000.0,0004.38,0002.22,0001.46
2023-06-02 01:30:00,SystemResetWarning,0825.4,5.01,000.00,029.6,028.1,000.0,037.8,031.2,22.8,0000.0,0004.47,0002.26,0001.48
2023-06-02 01:31:00,SystemResetWarning,0825.4,5.01,000.00,029.6,028.2,000.0,037.8,031.3,22.5,0000.0,0004.59,0002.30,0001.48
2023-06-02 01:32:00,SystemResetWarning,0825.4,5.01,000.00,029.6,028.3,000.0,037.9,031.3,22.5,0000.0,0004.50,0002.27,0001.48
2023-06-02 01:33:00,SystemResetWarning,0825.5,5.00,000.00,029.6,028.3,000.0,037.9,031.3,22.9,0000.0,0004.42,0002.26,0001.47
2023-06-02 01:34:00,SystemResetWarning,0825.5,4.99,000.00,029.7,028.4,000.0,037.9,031.4,22.6,0000.0,0004.32,0002.24,0001.47
2023-06-02 01:35:00,SystemResetWarning,0825.6,5.00,000.00,029.7,028.4,000.0,037.9,031.4,22.9,0000.0,0004.39,0002.25,0001.45
2023-06-02 01:36:00,SystemResetWarning,0825.6,4.99,000.00,029.7,028.5,000.0,037.9,031.4,22.7,0000.0,0004.38,0002.24,0001.45
2023-06-02 01:37:00,SystemResetWarning,0825.6,5.00,000.00,029.7,028.5,000.0,038.0,031.4,23.2,0000.0,0004.30,0002.20,0001.45
2023-06-02 01:38:00,SystemResetWarning,0825.6,5.01,000.00,029.8,028.5,000.0,038.0,031.5,24.5,0000.0,0004.59,0002.31,0001.48
2023-06-02 01:39:00,SystemResetWarning,0825.6,5.01,000.00,029.8,028.6,000.0,038.0,031.5,24.9,0000.0,0005.04,0002.42,0001.50
2023-06-02 01:40:00,SystemResetWarning,0825.6,4.99,000.00,029.8,028.1,000.0,038.0,031.5,25.1,0000.0,0005.84,0002.50,0001.51
2023-06-02 01:41:00,SystemResetWarning,0825.6,4.99,000.00,029.8,026.3,000.0,037.9,031.2,25.3,0000.0,0006.05,0002.56,0001.52
2023-06-02 01:42:00,SystemResetWarning,0825.7,5.01,000.00,029.7,025.6,000.0,037.8,031.0,25.4,0000.0,0006.33,0002.61,0001.53
2023-06-02 01:43:00,SystemResetWarning,0825.6,5.01,000.00,029.6,025.7,000.0,037.8,030.9,25.6,0000.0,0006.67,0002.65,0001.54
2023-06-02 01:44:00,SystemResetWarning,0825.7,5.01,000.00,029.5,026.0,000.0,037.8,030.9,25.3,0000.0,0007.19,0002.77,0001.55
2023-06-02 01:45:00,SystemResetWarning,0825.7,5.00,000.00,029.5,026.3,000.0,037.8,030.9,24.7,0000.0,0007.37,0002.83,0001.57
2023-06-02 01:46:00,SystemResetWarning,0825.8,5.00,000.00,029.5,026.7,000.0,037.8,031.0,24.5,0000.0,0007.40,0002.83,0001.58
2023-06-02 01:47:00,SystemResetWarning,0825.8,5.00,000.00,029.5,027.0,000.0,037.8,031.0,24.7,0000.0,0007.57,0002.85,0001.57
2023-06-02 01:48:00,SystemResetWarning,0825.9,5.00,000.00,029.5,027.2,000.0,037.8,031.1,24.4,0000.0,0008.36,0002.92,0001.57
2023-06-02 01:49:00,SystemResetWarning,0825.9,5.01,000.00,029.5,027.4,000.0,037.8,031.1,24.0,0000.0,0008.34,0002.87,0001.56
2023-06-02 01:50:00,SystemResetWarning,0825.9,5.00,000.00,029.5,027.6,000.0,037.8,031.1,24.1,0000.0,0007.86,0002.77,0001.54
2023-06-02 01:51:00,SystemResetWarning,0825.9,4.99,000.00,029.5,027.8,000.0,037.8,031.2,24.4,0000.0,0007.60,0002.71,0001.53
2023-06-02 01:52:00,SystemResetWarning,0825.9,5.00,000.00,029.5,027.9,000.0,037.9,031.2,24.6,0000.0,0007.61,0002.67,0001.51
2023-06-02 01:53:00,SystemResetWarning,0825.9,5.00,000.00,029.6,028.0,000.0,037.9,031.2,24.5,0000.0,0007.53,0002.66,0001.50
2023-06-02 01:54:00,SystemResetWarning,0825.9,5.00,000.00,029.6,028.1,000.0,037.9,031.2,24.0,0000.0,0007.38,0002.66,0001.50
2023-06-02 01:55:00,SystemResetWarning,0826.0,4.99,000.00,029.6,028.2,000.0,037.9,031.3,24.4,0000.0,0007.06,0002.60,0001.48
2023-06-02 01:56:00,SystemResetWarning,0826.0,5.00,000.00,029.6,028.2,000.0,037.9,031.3,24.5,0000.0,0006.85,0002.53,0001.46
2023-06-02 01:57:00,SystemResetWarning,0826.0,5.02,000.00,029.7,028.3,000.0,037.9,031.3,24.4,0000.0,0006.89,0002.44,0001.44
2023-06-02 01:58:00,SystemResetWarning,0826.1,5.01,000.00,029.7,028.4,000.0,037.9,031.4,24.1,0000.0,0007.22,0002.40,0001.43
2023-06-02 01:59:00,SystemResetWarning,0826.2,5.00,000.00,029.7,028.4,000.0,038.0,031.4,24.3,0000.0,0006.34,0002.41,0001.42
